ハーマン彗星

275P/Hermann (2012)

English version
Home page
Updated on April 28, 2013

---------------------------------------------------------------------

・ プロフィール

符号 275P/2012 Y2
再発見日 2012年12月22日
再発見光度 20.2等
再発見者 Pan-STARRS 1 telescope (Haleakala)

・ 軌道要素

Epoch 2012 Dec. 19.0 TT = JDT 2456280.5
T 2012 Dec. 27.28058 TT                                 MPC
q   1.6437649            (2000.0)            P               Q
n   0.07148053     Peri.  173.98412     -0.95636822     -0.28341390
a   5.7501286      Node   348.75560     +0.25058860     -0.67081936
e   0.7141342      Incl.   21.34274     +0.15021710     -0.68533054
P  13.8
From 121 observations 1999 Feb. 20-2012 Dec. 25, mean residual 0".8.

・ 光度変化

        m1 = 15.0 + 5 logΔ + 15.0 log r

---------------------------------------------------------------------

軌道要素はM.P.E.C. 2012-Y29に掲載されたものです。
光度グラフはComet for Windowsで作成したものです。

---------------------------------------------------------------------

Copyright(C) Seiichi Yoshida (comet@aerith.net). All rights reserved.